#timestamp,LO_Frequency,Hit,StdDev 
1585339215.8,286046993.9,N
1585339235.6,286046994.0,N
1585339255.5,286046993.3,N
1585339275.3,286046993.7,N
1585339295.2,286046993.4,N
1585339315.9,286046993.4,N
1585339335.7,286046994.5,N
1585339355.6,286046993.5,N
1585339375.4,286046993.3,N
1585339395.2,286046994.0,N
1585339415.1,286046993.3,N
1585339416.0,286046993.3,N
1585339435.8,286046995.7,N
1585339455.7,286046995.8,N
1585339475.5,286046996.2,N
1585339495.3,286046995.2,N
1585339515.2,286046993.3,N
1585339535.0,286046996.3,N
1585339535.9,286046996.3,N
1585339555.8,286046994.6,N
1585339575.6,286046992.0,N
1585339595.4,286046994.8,N
1585339615.3,286046993.9,N
1585339635.1,286046994.5,Y
1585339655.8,286047001.0,P
1585339675.7,286046997.2,N
1585339725.6,286046997.1,E
1585339735.5,286047000.8,N
1585339755.3,286047000.4,P
1585339775.2,286047000.0,N
1585339795.9,286046999.9,N
1585339815.7,286047001.1,Y
1585339835.6,286046999.2,P
1585339855.4,286046997.0,P
1585339875.2,286046998.9,N
1585339895.1,286046998.9,N
1585339896.0,286046998.9,N
1585339915.8,286046996.9,Y
1585339935.7,286046998.2,P
1585339955.5,286046999.0,P
1585339975.3,286046999.5,N
1585339995.2,286046999.2,N
1585340015.0,286046999.5,N
1585340015.9,286046999.5,N
1585340035.8,286046996.5,Y
1585340055.6,286046998.5,P
1585340075.4,286046998.1,P
1585340095.3,286047000.8,N
1585340115.1,286046999.0,N
1585340135.9,286046998.7,N
1585340155.7,286046999.5,N
1585340175.5,286046996.8,Y
1585340195.4,286046999.6,P
1585340215.2,286046996.5,P
1585340235.0,286046999.1,N
1585340236.0,286046999.1,N
1585340255.8,286047000.4,N
1585340275.6,286046998.9,N
1585340295.5,286047001.1,N
1585340315.3,286047001.2,N
1585340335.1,286046999.2,N
1585340355.9,286046997.0,N
1585340375.7,286046994.9,Y
1585340395.6,286046999.0,P
1585340415.4,286046998.1,P
1585340435.2,286046999.3,N
1585340455.1,286046998.7,N
1585340456.0,286046998.7,Y
1585340475.8,286047003.1,P
1585340495.7,286047004.3,N
1585340515.5,286047002.9,N
1585340535.3,286047003.9,N
1585340555.2,286047001.4,N
1585340575.0,286047004.3,N
1585340575.9,286047004.3,N
1585340595.8,286047005.9,Y
1585340615.6,286046998.9,P
1585340635.5,286047000.6,N
1585340655.3,286046998.5,N
1585340675.1,286046998.3,N
1585340695.9,286046999.8,N
1585340715.7,286047000.3,N
1585340735.5,286046999.7,N
1585340755.4,286047002.6,N
1585340775.2,286047002.4,N
1585340795.1,286047001.8,N
1585340796.0,286047001.8,N
1585340815.8,286047001.3,N
1585340835.6,286046999.7,N
1585340855.5,286047001.3,N
1585340875.3,286047004.2,N
1585340895.2,286047005.5,Y
1585340915.9,286047001.1,P
1585340935.7,286047000.7,P
1585340955.6,286047002.2,P
1585340975.4,286046999.7,N
1585340995.3,286047002.2,N
1585341015.1,286047001.3,N
1585341035.8,286047002.0,N
1585341055.7,286047002.1,N
1585341075.5,286047003.2,Y
1585341095.4,286047001.9,P
1585341115.2,286047003.3,P
1585341135.0,286047003.2,P
1585341135.9,286047003.2,Y
1585341155.8,286047000.0,P
1585341175.6,286046998.8,N
1585341195.5,286047000.6,N
1585341215.3,286047000.8,N
1585341235.1,286047000.3,N
1585341255.9,286047001.0,N
1585341275.7,286047002.4,N
1585341295.6,286047000.1,N
1585341315.4,286047001.9,N
1585341335.2,286047002.5,N
1585341355.1,286047002.8,N
1585341356.0,286047002.8,N
1585341375.8,286047000.1,N
1585341395.7,286047001.7,N
1585341415.5,286047001.6,N
1585341435.4,286047003.8,Y
1585341455.2,286047000.2,P
1585341475.0,286046999.8,N
1585341475.9,286046999.8,N
1585341495.8,286046998.5,N
1585341515.6,286046999.4,N
1585341535.5,286047000.9,N
1585341555.3,286047001.0,N
1585341575.1,286047000.3,N
1585341595.9,286047002.8,Y
1585341615.7,286047002.0,P
1585341635.6,286047002.5,N
1585341655.4,286047002.7,N
1585341675.2,286047001.9,N
1585341695.1,286047003.8,Y
1585341696.0,286047003.8,P
1585341715.8,286047001.5,N
1585341735.7,286046998.2,N
1585341755.5,286046997.4,N
1585341775.3,286046995.3,N
1585341795.2,286046999.4,N
1585341815.0,286046997.1,N
1585341815.9,286046997.1,N
1585341835.8,286046995.3,N
1585341855.6,286046998.6,N
1585341875.4,286046997.8,N
1585341895.3,286046998.6,N
1585341915.1,286046999.5,N
1585341935.8,286046998.2,N
1585341955.7,286047000.9,N
1585341975.5,286047000.5,N
1585341995.4,286046999.9,N
1585342015.2,286046998.1,N
1585342035.0,286046999.5,N
1585342035.9,286046999.5,N
1585342055.8,286046998.4,N
1585342075.6,286046998.4,N
1585342095.5,286046998.5,N
1585342115.3,286047001.1,N
1585342135.1,286047002.8,N
1585342155.9,286046998.3,N
1585342175.7,286046998.7,N
1585342195.5,286047000.6,N
1585342215.4,286046999.8,N
1585342235.2,286046998.1,N
1585342255.1,286046998.6,N
1585342256.0,286046998.6,N
1585342275.8,286046999.0,N
1585342295.7,286046996.5,N
1585342315.5,286046998.4,N
1585342335.3,286046999.1,N
1585342355.2,286047001.1,N
1585342375.0,286046998.3,N
1585342375.9,286046998.3,N
1585342395.7,286047001.0,N
1585342415.6,286047000.9,N
1585342435.4,286047001.0,N
1585342455.3,286046999.7,N
1585342475.1,286047000.3,N
1585342495.8,286047000.8,N
1585342515.7,286047000.1,N
1585342535.5,286046998.5,N
1585342555.4,286047000.3,N
1585342575.2,286047001.1,N
1585342595.0,286046998.4,N
1585342595.9,286046998.4,N
1585342615.8,286046998.4,N
1585342635.6,286046998.4,N
1585342655.4,286046998.6,N
1585342675.3,286046999.6,N
1585342695.1,286046999.6,N
1585342715.9,286046998.8,N
1585342735.7,286047000.8,N
1585342755.5,286047001.1,N
1585342775.4,286046999.8,N
1585342795.2,286047000.9,N
